User: anonymous   Login
Location: Fort Wayne
(41.1310°N, 85.1290°W)
Time: 20:06:23
(UTC-05:00)
Language:

COSMOS 2428 - Orbit

View from above orbital plane
View from above orbital plane
View from above satellite
View from above satellite

Ground track
Ground track

The orbit data is extracted from the following two-line orbital elements,

1 31792U 07029A   15026.69906260  .00000209  00000-0  13889-3 0  3955
2 31792 070.9827 081.3832 0009314 177.3665 320.7068 14.12522197390871
Epoch (UTC): 26 January 2015 16:46:39
Eccentricity: 0.0009314
inclination: 70.9827°
perigee height: 844 km
apogee height: 857 km
right ascension of ascending node: 81.3832°
argument of perigee: 177.3665°
revolutions per day: 14.12522197
mean anomaly at epoch: 320.7068°
orbit number at epoch: 39087

The dashed part of the orbit path shows where the satellite is in the earth's shadow,  

DLR